OpenBCM V1.13 (Linux)

Packet Radio Mailbox

DB0FHN

[JN59NK Nuernberg]

 Login: GUEST





  
I0OJJ  > AMSAT    07.07.26 02:52l 325 Lines 15359 Bytes #999 (0) @ WW
BID : A5RB0_I0OJJ
Read: OE5RCO DJ6UX GUEST
Subj: 2Line Orbital Elements
Path: DB0FHN<DB0RKB<DK0WUE<HB9ON<HB9ON<PI8ZTM<VE3CGR<VK2RZ<IR0AAB<I0OJJ
Sent: 260707/0030z @:I0OJJ.ITA.EU [Rome] $:A5RB0_I0OJJ

>From i0ojj@i0ojj.ampr.org Tue Jul  7 02:30:03 2026
Received: from i0ojj.ampr.org by i0ojj.ampr.org (JNOS2.0q.1) with SMTP
	id AA17064828 ; Tue, 07 Jul 2026 02:30:03 +0200
Received: by i0ojj.ampr.org with SMTP
	id AA17064825 ; Tue, 07 Jul 2026 02:26:38 +0200
Message-Id: <17064826@i0ojj.ampr.org>
>From: i0ojj@i0ojj.ampr.org

SB KEPS @ AMSAT  $ORB26188.1
2Line Orbital Elements 26188.AMSAT

QST de W1STR

AMSAT Orbital Elements for Amateur Satellites in TLE Format
>From Orbital Analysis Office
New England Sci-Tech STEM Education Center
Natick MA July 07, 2026
To all radio amateurs


These element sets describe the orbits of various satellites 
in use by the amateur radio community. For details see:
www.amsat.org/keplerian-elements-formats/

A daily update of element sets is available at:
www.amsat.org/tle/daily-bulletin.txt
or without bulletin text:
www.amsat.org/tle/dailytle.txt


AO-07
1 07530U 74089B   26187.62646037 -.00000048  00000-0 -13258-4 0  9998
2 07530 101.9900 201.0755 0012666  94.1905  25.1284 12.53698401362952
UO-11
1 14781U 84021B   26187.68593772  .00001177  00000-0  12522-3 0  9998
2 14781  97.8068 153.0444 0009070 114.7620 245.4542 14.90834297260033
LO-19
1 20442U 90005G   26187.57763326  .00000096  00000-0  51049-4 0  9997
2 20442  98.8845 209.9170 0012194 144.9529 215.2460 14.34128987905174
AO-27
1 22825U 93061C   26187.71836205  .00000079  00000-0  47026-4 0  9993
2 22825  98.6872 255.1240 0009183  48.9573 311.2402 14.30947534709792
FO-29
1 24278U 96046B   26187.82950257 -.00000018  00000-0  15885-4 0  9991
2 24278  98.5225  34.0093 0350676  45.6079 317.3214 13.53275038475827
GO-32
1 25397U 98043D   26187.87289024  .00000041  00000-0  37954-4 0  9991
2 25397  99.0077 181.1287 0001941 128.3440 231.7913 14.24432183454130
ISS
1 25544U 98067A   26187.47606523  .00006115  00000-0  11937-3 0  9994
2 25544  51.6304 204.6205 0006688 262.9565  97.0662 15.48920216574748
NO-44
1 26931U 01043C   26187.71597948  .00000106  00000-0  70598-4 0  9993
2 26931  67.0487 193.7609 0005989 265.9645  94.0772 14.31962724293246
SO-50
1 27607U 02058C   26187.10353916  .00000968  00000-0  13139-3 0  9992
2 27607  64.5520  70.4578 0074778 258.9395 100.3295 14.83086846267262
CO-55
1 27844U 03031E   26187.56604814  .00000268  00000-0  13471-3 0  9995
2 27844  98.6738 195.8812 0010595 125.0004 235.2171 14.24347746194438
RS-22
1 27939U 03042A   26187.84707552  .00001899  00000-0  30031-3 0  9998
2 27939  98.3476  12.7617 0010552 200.4320 272.9611 14.73507842218445
CO-65
1 32785U 08021C   26187.86961265  .00003564  00000-0  22553-3 0  9991
2 32785  97.8290 169.7007 0007594 333.7345  26.3497 15.09650542988165
CO-66
1 32791U 08021J   26187.52081955  .00014454  00000-0  44924-3 0  9996
2 32791  97.7528 186.3507 0002070 176.8550 183.2705 15.33455492990255
RS-30
1 32953U 08025A   26187.81558828  .00000038  00000-0  20098-3 0  9999
2 32953  82.5058 343.2286 0018505 268.4483  91.4477 12.43180259822137
SRMSAT
1 37841U 11058D   26187.37330642  .00000384  00000-0  64430-4 0  9996
2 37841  19.9727 303.3445 0011875  55.1210 344.5933 14.11579689760531
ZACUBE-1
1 39417U 13066B   26187.87004257  .00002235  00000-0  17519-3 0  9995
2 39417  97.8025 150.3054 0043443 181.9155 178.1909 15.01302905683685
Delfi-N3xt
1 39428U 13066N   26187.85352537  .00004812  00000-0  41803-3 0  9998
2 39428  97.8319 108.1471 0075430 140.2098 220.4689 14.95290056677563
GOMX-1
1 39430U 13066Q   26187.79627457  .00002589  00000-0  39160-3 0  9992
2 39430  97.6474  27.0210 0129051  15.1594 345.3423 14.69531142672794
LO-74
1 39440U 13066AA  26187.42111588  .00003781  00000-0  35018-3 0  9999
2 39440  97.8914 136.4829 0056283 325.3135  34.4418 14.93929798679860
AO-73
1 39444U 13066AE  26187.87556615  .00006051  00000-0  37306-3 0  9991
2 39444  97.8282 159.7358 0037536 134.9216 225.5068 15.09744377682630
DTUSAT-2
1 40030U 14033W   26187.72027594  .00005463  00000-0  29401-3 0  9995
2 40030  98.0877 186.6911 0008678 156.8720 203.2903 15.15280829655644
LILACSAT-2
1 40908U 15049K   26187.87568815  .00015277  00000-0  25390-3 0  9996
2 40908  97.4627 225.4713 0007690 166.8892 193.2561 15.52141779598803
Horyu-4
1 41340U 16012D   26182.79199294  .04204222 -38650-5  11151-2 0  9996
2 41340  30.9791 330.1929 0008660 346.1826  13.8606 16.27112331573163
Lapan A3
1 41603U 16040E   26187.83647052  .00003274  00000-0  10420-3 0  9990
2 41603  97.1498 183.3383 0008566 312.5162  47.5357 15.33240216557823
CAS-2T
1 41847U 16066G   26187.70215360  .00001373  00000-0  19925-3 0  9994
2 41847  98.3816 263.2151 0342650  70.4684 293.3172 14.44756780507612
TechnoSat
1 42829U 17042E   26187.39733508  .00003419  00000-0  24381-3 0  9999
2 42829  97.4297 344.3272 0018163  32.0297 328.2030 15.05071587489594
AO-91
1 43017U 17073E   26187.58761253  .00006099  00000-0  26701-3 0  9997
2 43017  97.4676  54.4063 0148166 261.5365  96.9050 15.12985163468325
S-Net D
1 43186U 18014G   26187.79158642  .00003646  00000-0  18859-3 0  9995
2 43186  97.5339  92.4600 0006752 321.2340  38.8408 15.16866784461730
S-Net B
1 43187U 18014H   26187.80342396  .00004112  00000-0  21241-3 0  9997
2 43187  97.5346  92.4588 0007266 314.9428  45.1215 15.16837136461737
S-Net A
1 43188U 18014J   26187.79035547  .00003604  00000-0  18642-3 0  9999
2 43188  97.5355  92.6586 0007169 315.9615  44.1046 15.16875158461736
S-Net C
1 43189U 18014K   26187.80740213  .00004116  00000-0  21262-3 0  9996
2 43189  97.5371  92.7531 0008355 305.2688  54.7762 15.16828330460287
Ten-Koh
1 43677U 18084G   26187.49729735  .00002479  00000-0  18895-3 0  9994
2 43677  98.0744  20.6725 0010255  56.6502 303.5702 15.03011241419068
PO-101
1 43678U 18084H   26187.84221551  .00003137  00000-0  25346-3 0  9998
2 43678  98.1212  24.9093 0013068 109.5448 250.7187 15.00543978419162
QO-100
1 43700U 18090A   26187.86482309  .00000159  00000-0  00000+0 0  9990
2 43700   0.0211 288.1789 0002313 222.3274 111.4810  1.00272249 27871
MinXSS-2
1 43758U 18099A   26187.68382054  .00033292  00000-0  62856-3 0  9993
2 43758  97.4522 264.5577 0008089 186.5043 173.6104 15.48353071417142
AO-95
1 43770U 18099N   26187.67227160  .00009039  00000-0  34206-3 0  9992
2 43770  97.4371 247.8507 0006911 276.3319  83.7133 15.27149327416192
SNUSat 2
1 43782U 18099AA  26187.13669278  .00007931  00000-0  34843-3 0  9992
2 43782  97.4045 240.2314 0009271 220.8240 139.2302 15.22146277415915
SnugLite
1 43784U 18099AC  26187.66670693  .00009183  00000-0  34256-3 0  9994
2 43784  97.3853 241.7587 0002769 183.7353 176.3866 15.27630647416291
ITASat 1
1 43786U 18099AE  26187.71598029  .00004636  00000-0  22248-3 0  9990
2 43786  97.4015 238.8395 0010723 284.8338  75.1709 15.19312324415878
EAGLET 1
1 43790U 18099AJ  26187.62889288  .00003902  00000-0  22391-3 0  9999
2 43790  97.4216 236.7829 0009456 278.9276  81.0885 15.13091026415273
ESEO
1 43792U 18099AL  26187.60387743  .00001149  00000-0  86614-4 0  9998
2 43792  97.3953 224.1606 0010402 267.1194  92.8842 15.04301148414729
JO-97
1 43803U 18099AX  26186.62217810  .00022572  00000-0  68069-3 0  9995
2 43803  97.4115 249.5264 0005983 188.7802 171.3337 15.34293802416450
Suomi 100
1 43804U 18099AY  26187.71332519  .00010073  00000-0  36097-3 0  9990
2 43804  97.4172 248.0387 0009759 201.8344 158.2481 15.28892213416400
ISAT
1 43879U 18111D   26187.38249468  .00122128  00000-0  10353-2 0  9991
2 43879  97.5857 124.1319 0006096 154.8857 205.2702 15.69277378414174
UWE-4
1 43880U 18111E   26186.78293923  .00043173  00000-0  84254-3 0  9995
2 43880  97.5843 116.0459 0004684 235.7756 124.3050 15.47365913413652
Sparrow
1 43881U 18111F   26187.35064001  .00253896  00000-0  12434-2 0  9998
2 43881  97.6088 130.1042 0006641 143.8702 216.3016 15.81562619414391
Prox-1
1 44339U 19036A   26187.73507293  .00010241  00000-0  97918-3 0  9997
2 44339  23.9962 343.6266 0005310 267.2841  92.7051 14.91119104376398
Taurus 1
1 44530U 19059C   26187.81699219  .00005601  00000-0  89389-3 0  9991
2 44530  98.6437 353.8666 0007512 244.7963 115.2464 14.72316802361537
TO-108
1 44881U 19093C   26187.83444267  .00001778  00000-0  20638-3 0  9994
2 44881  97.7520 259.5872 0014339  28.2264 331.9726 14.86556484354339
RS-44
1 44909U 19096E   26187.86313613  .00000022  00000-0  35196-4 0  9998
2 44909  82.5236 326.6298 0218594  98.3774 264.2172 12.79748950304864
SALSAT
1 46495U 20068K   26187.57050323  .00006429  00000-0  22350-3 0  9999
2 46495  97.8859 191.8188 0008365 225.6933 134.3621 15.30088375318321
CSS (TIANHE-1)
1 48274U 21035A   26187.49735435  .00011627  00000-0  15480-3 0  9998
2 48274  41.4676 204.5488 0002947 273.1350  86.9151 15.58009548296180
CUTE
1 49263U 21088D   26187.23212665  .00475427  10580-3  74939-3 0  9995
2 49263  97.4066 288.4907 0002152 248.0418 112.0633 16.03910366265591
TeikyoSat 4
1 49396U 21102B   26187.67541690  .00001711  00000-0  11020-3 0  9996
2 49396  97.3663 216.4012 0010894 219.1430 140.9012 15.09580518255668
Z-Sat
1 49399U 21102E   26187.83733625  .00003839  00000-0  18915-3 0  9991
2 49399  97.3313 222.5644 0016776 172.8496 187.2981 15.18419443256426
KOSEN 1
1 49402U 21102H   26187.67004928  .00006785  00000-0  25694-3 0  9990
2 49402  97.3175 229.4502 0015050 134.5634 225.6837 15.27128535256997
HO-113
1 50466U 21131B   26187.83895569  .00000825  00000-0  26825-3 0  9997
2 50466  98.4982 280.1230 0005042  51.2523 308.9116 14.41378117237948
SNUGLITE 2
1 52899U 22065F   26187.36833108  .00001026  00000-0  20333-3 0  9997
2 52899  98.2226 332.1674 0006705 332.4887  27.5959 14.64383927213801
UmKA 1 (RS40S)
1 57172U 23091G   26187.83129701  .00004836  00000-0  22037-3 0  9990
2 57172  97.5037 246.4545 0013759  56.6710 303.5840 15.21058028166991
